Terminal Aerodrome Forecast
Issued by NWS

Home | Current Version | Previous Version | Text Only | Print | Product List | Glossary On
Versions: 1 2 3 4 5 6 7 8 9 10 11 12 13 14 15 16 17 18 19 20 21 22 23 24 25 26 27 28 29 30 31 32 33
000
FTUS45 KGJT 011525 AAA
TAFRIL
TAF AMD
KRIL 011525Z 0115/0212 20003KT 3SM RA BR BKN011 OVC030
      TEMPO 0115/0117 P6SM -SHRA SCT025 OVC040
     FM011700 28010KT P6SM VCSH SCT030 BKN050
     FM012100 29012G20KT P6SM -SHRA BKN050 OVC080
     FM020100 29010KT P6SM VCSH SCT050 BKN080
     FM020800 28007KT P6SM SCT080=

USA.gov is the U.S. government's official web portal to all federal, state and local government web resources and services.